Simultaneous Nadir Overpasses (SNOs) Predictions

Prediction of SNOs between AQUA and METOP-B Satellite Orbit:

Table of predicted SNOs for the next 14.0 days since TLE Epoch: 3/25/2016
Index Date (AQUA) Time (AQUA) Lat,Lon (AQUA) SZA (AQUA ) Date (METOP-B) Time (METOP-B) Lat,Lon (METOP-B) SZA (METOP-B ) Distance(km) Time Diff (sec)
1 03/25/2016 22:19:26 -73.82, 19.45 108.41 03/25/2016 22:18:25 -73.83, 19.43 108.38 1.32 61
2 03/25/2016 23:08:55 73.90,-173.08 71.67 03/25/2016 23:09:03 73.91,-173.04 71.68 1.96 8
3 03/25/2016 23:58:28 -74.28, -6.30 107.94 03/25/2016 23:59:38 -74.26, -4.86 108.02 43.56 70
4 03/28/2016 17:53:45 -73.83, 85.86 109.51 03/28/2016 17:52:48 -73.85, 85.88 109.48 2.51 57
5 03/28/2016 18:43:14 73.91,-106.69 70.57 03/28/2016 18:43:26 73.92,-106.60 70.58 2.96 12
6 03/28/2016 19:32:50 -74.44, 59.74 108.88 03/28/2016 19:33:58 -74.42, 61.96 108.98 66.53 68
7 03/31/2016 13:28:04 -73.85, 152.24 110.59 03/31/2016 13:27:11 -73.87, 152.32 110.56 3.10 53
8 03/31/2016 14:17:32 73.88, -40.20 69.44 03/31/2016 14:17:50 73.89, -40.30 69.45 2.94 18
9 03/31/2016 15:07:12 -74.61, 125.74 109.79 03/31/2016 15:08:17 -74.63, 128.92 109.88 93.77 65
10 04/03/2016 09:02:22 -73.83,-141.29 111.70 04/03/2016 09:01:35 -73.83,-141.37 111.68 2.46 47
11 04/03/2016 09:51:50 73.92, 26.14 68.40 04/03/2016 09:52:12 73.89, 26.12 68.37 3.15 22
12 04/06/2016 04:36:39 -73.82, -74.84 112.78 04/06/2016 04:35:57 -73.83, -74.95 112.75 3.57 42
13 04/06/2016 05:26:08 73.92, 92.58 67.32 04/06/2016 05:26:35 73.90, 92.54 67.30 2.56 27




NCC Satellite Simultaneous Nadir Overpasses (SNOs) Prediction Service
